Regional Weather Roundup
Issued by NWS

Home | Current Version | Previous Version | Graphics & Text | Print | Product List | Glossary On
Versions: 1 2 3 4 5 6 7 8 9 10 11 12 13 14 15 16 17 18 19 20 21 22 23 24 25 26 27 28 29 30 31 32 33 34 35 36 37 38 39 40 41 42 43 44 45 46 47 48 49 50
000
ASUS45 KABQ 201610
RWRNM
NEW MEXICO REGIONAL WEATHER ROUNDUP
NATIONAL WEATHER SERVICE ALBUQUERQUE NM
1000 AM MDT WED SEP 20 2017

NOTE: "FAIR" MEANS FEW OR NO CLOUDS BELOW 12,000 FEET AGL WITH NO
       SIGNIFICANT WEATHER OR OBSTRUCTIONS TO VISION.

      THIS PRODUCT IS RELEASED AS TWO VERSIONS.  ONE VERSION NEAR
      THE TOP OF THE HOUR CONTAINING PRELIMINARY DATA FROM ALBUQUERQUE
      AND OTHER STATIONS.  A FINAL VERSION WITH ADDITIONAL DATA IS
      ISSUED ABOUT 10 MINUTES AFTER THE HOUR.

NMZ501-503-504-510>518-201700-
NORTHWEST PLATEAU/NORTHCENTRAL MOUNTAINS

CITY           SKY/WX    TMP DP  RH WIND       PRES   REMARKS
FARMINGTON     FAIR      63  32  31 SE8       30.07R
LOS ALAMOS     FAIR      65  29  26 NW3       30.19S
SANTA FE       FAIR      68  35  29 SW13      30.14R
TAOS           FAIR      65  32  29 VRB6      30.20S
ANGEL FIRE     FAIR      59  28  31 CALM      30.23S

$$
NMZ402-403-502-505>509-201700-
WESTCENTRAL MOUNTAINS/SOUTHWEST MOUNTAINS

CITY           SKY/WX    TMP DP  RH WIND       PRES   REMARKS
GALLUP         FAIR      67  20  16 W20G25    30.16R
GRANTS         FAIR      66  27  23 SE10      30.18R
SILVER CITY    FAIR      73  49  42 W15       30.16R

$$
NMZ407-409-411-412-201700-
SOUTHERN DESERTS

CITY           SKY/WX    TMP DP  RH WIND       PRES   REMARKS
DEMING         FAIR      76  53  44 W12       30.10R
LAS CRUCES     FAIR      77  47  35 SW16      30.10S
HOLLOMAN AFB   FAIR      82  40  23 CALM      30.07S
ALAMOGORDO     FAIR      81  39  22 SW7       30.08R
T OR C         FAIR      76  39  26 VRB3      30.09R

$$
NMZ519>523-201700-
CENTRAL VALLEYS/CENTRAL HIGHLANDS

CITY           SKY/WX    TMP DP  RH WIND       PRES   REMARKS
ALBUQUERQUE    FAIR      69  36  29 SW8       30.12R
DOUBLE EAGLE   SUNNY     70  34  26 VRB3      30.14R
MORIARTY ARPT  FAIR      73  34  24 W9        30.15S
CLINES CORNERS FAIR      67  31  26 NW18G29   30.17R
BELEN          FAIR      73  33  22 SW3       30.11S
SOCORRO        FAIR      73  36  26 CALM      30.09S

$$
NMZ524>526-539-540-201700-
SOUTHCENTRAL MOUNTAINS

CITY           SKY/WX    TMP DP  RH WIND       PRES   REMARKS
RUIDOSO        FAIR      72  37  28 W7        30.21R

$$
NMZ527>531-201700-
NORTHEAST HIGHLANDS/NORTHEAST PLAINS

CITY           SKY/WX    TMP DP  RH WIND       PRES   REMARKS
LAS VEGAS      FAIR      67  32  27 NE5       30.14R
RATON          FAIR      63  30  28 CALM      30.10R
CLAYTON        FAIR      64  28  25 NE12      30.07R

$$
NMZ532>537-201700-
EASTCENTRAL PLAINS

CITY           SKY/WX    TMP DP  RH WIND       PRES   REMARKS
SANTA ROSA     FAIR      68  32  26 NE15      30.05R
TUCUMCARI      FAIR      67  33  28 E12G17    30.02R
CANNON AFB     FAIR      69  39  32 N7        30.03R
CLOVIS AIRPORT FAIR      67  40  37 N7        30.03R

$$
NMZ028-029-538-201700-
SOUTHEAST PLAINS

CITY           SKY/WX    TMP DP  RH WIND       PRES   REMARKS
ROSWELL        FAIR      80  45  28 E6        29.98S
ARTESIA        FAIR      88  43  20 W10       29.97S
CARLSBAD       FAIR      88  49  25 SW24G33   29.95R
HOBBS          SUNNY     84  81  89 W14       29.99R HX  98


$$




USA.gov is the U.S. government's official web portal to all federal, state and local government web resources and services.